This demonstration page uses our WeatherBlox Daily Observations layout. Learn more.

Left ArrowRight Arrow

Hourly Observations for February 1, 2018

Temp ( °F °C ) Dew Point ( °F °C ) Humidity (%) Winds ( mph kmh ) Pressure ( in mb ) Visibility ( mi km ) Precip ( " mm )
12:54 am 00:54 Clear 30 -1.1 22 -5.6 72 72 N 24 39 30.13 1020 10 16 0.00 0.00
1:54 am 01:54 Mostly Clear 27 -2.8 19 -7.2 72 72 N 16 26 30.17 1022 10 16 0.00 0.00
2:54 am 02:54 Clear 25 -3.9 15 -9.4 66 66 N 18 30 30.21 1023 10 16 0.00 0.00
3:54 am 03:54 Clear 21 -6.1 12 -11.1 68 68 N 21 33 30.24 1024 10 16 0.00 0.00
4:54 am 04:54 Clear 17 -8.3 9 -12.8 70 70 N 21 33 30.27 1025 10 16 0.00 0.00
5:54 am 05:54 Clear 14 -10 5 -15 67 67 N 20 31 30.32 1027 10 16 0.00 0.00
6:54 am 06:54 Clear 13 -10.6 4 -15.6 67 67 N 13 20 30.37 1028 10 16 0.00 0.00
7:54 am 07:54 Sunny 11 -11.7 2 -16.7 67 67 N 17 28 30.41 1030 10 16 0.00 0.00
8:54 am 08:54 Sunny 12 -11.1 1 -17.2 61 61 N 22 35 30.45 1031 10 16 0.00 0.00
9:54 am 09:54 Sunny 15 -9.4 2 -16.7 56 56 NNW 20 31 30.48 1032 10 16 0.00 0.00
10:54 am 10:54 Sunny 16 -8.9 1 -17.2 51 51 NNW 18 30 30.50 1033 10 16 0.00 0.00
11:54 am 11:54 Sunny 19 -7.2 1 -17.2 45 45 NNW 20 31 30.51 1033 10 16 0.00 0.00
12:54 pm 12:54 Sunny 19 -7.2 1 -17.2 45 45 N 16 26 30.50 1033 10 16 0.00 0.00
1:54 pm 13:54 Sunny 21 -6.1 2 -16.7 43 43 NNW 12 19 30.51 1033 10 16 0.00 0.00
2:54 pm 14:54 Sunny 21 -6.1 2 -16.7 43 43 NW 14 22 30.51 1033 10 16 0.00 0.00
3:54 pm 15:54 Sunny 20 -6.7 2 -16.7 45 45 NW 13 20 30.54 1034 10 16 0.00 0.00
4:54 pm 16:54 Sunny 19 -7.2 2 -16.7 47 47 NNW 10 17 30.56 1035 10 16 0.00 0.00
5:54 pm 17:54 Clear 17 -8.3 2 -16.7 51 51 NNW 8 13 30.58 1036 10 16 0.00 0.00
6:54 pm 18:54 Clear 16 -8.9 3 -16.1 56 56 NNW 7 11 30.60 1036 10 16 0.00 0.00
7:54 pm 19:54 Clear 12 -11.1 3 -16.1 67 67 NNW 3 6 30.61 1037 10 16 0.00 0.00
8:54 pm 20:54 Clear 11 -11.7 2 -16.7 67 67 Calm 30.62 1037 10 16 0.00 0.00
9:54 pm 21:54 Clear 9 -12.8 2 -16.7 73 73 Calm 30.63 1037 10 16 0.00 0.00
10:54 pm 22:54 Clear 10 -12.2 4 -15.6 76 76 Calm 30.63 1037 10 16 0.00 0.00
11:54 pm 23:54 Clear 8 -13.3 2 -16.7 76 76 Calm 30.63 1037 10 16 0.00 0.00

Powered by AerisWeather